sat.trackr.live / text

‹ back to catalog

ECHOSTAR 14

NORAD 36499 · 2010-010A

PAYLOAD ACTIVE UNKNOWN

§ Identity

Operator
Country
US
Launch date
2010-03-20
Launch site
TYMSC
Launch vehicle
Mass (kg)
RCS (m²)
46.23

Purposes: comms

External: N2YO · Heavens-Above · Gunter

§ Orbital elements

Epoch: 2026-09-13T02:27:49.278816Z

Period
1,436.08 min
Inclination
0.0370°
Eccentricity
0.0001951
Mean motion
1.00272869 rev/d
Perigee alt
35,778.1 km
Apogee alt
35,794.5 km
Semi-major
42,164.4 km
B*
0.0000e+0
RAAN
266.3938°
Arg perigee
274.0844°
Mean anomaly
89.6613°
Rev number
4,743

§ Raw data

ECHOSTAR 141 36499U 10010A   26256.10265369 -.00000012  00000+0  00000+0 0  99982 36499   0.0370 266.3938 0001951 274.0844  89.6613  1.00272869 47431

JSON: /api/v1/satellites/36499 · /tle

For live sub-satellite position, see the globe view (requires WebGL).

§ Visibility from observer

Set your observer location to see the next 7 days of passes ≥ 10°. The values pass through the URL so the page stays shareable.

No JS? Fill the form by hand. The geolocation button needs JavaScript.